This is the latest recevied weather packets stored in our database for station/object IZ2XCK-13. If no packets are shown the sender has not sent any weather packets the latest 10 day(s).
| Time | Temp. | Humidity | Pressure | Rain* | Wind** | Luminosity | Snow |
|---|---|---|---|---|---|---|---|
| 1777575912 | 13.89° C | 60% | 1025.4 hPa | - | - | - | - |
| 1777574711 | 14.44° C | 59% | 1025.1 hPa | - | - | - | - |
| 1777573511 | 14.44° C | 59% | 1024.9 hPa | - | - | - | - |
| 1777572311 | 15° C | 59% | 1024.7 hPa | - | - | - | - |
| 1777571110 | 15° C | 59% | 1024.5 hPa | - | - | - | - |
| 1777569910 | 14.44° C | 58% | 1024.4 hPa | - | - | - | - |
| 1777568711 | 15° C | 55% | 1024.3 hPa | - | - | - | - |
| 1777567509 | 15.56° C | 54% | 1024.4 hPa | - | - | - | - |
| 1777566309 | 15.56° C | 56% | 1024.3 hPa | - | - | - | - |
| 1777565109 | 15.56° C | 55% | 1024.3 hPa | - | - | - | - |
| 1777563908 | 15.56° C | 54% | 1024.4 hPa | - | - | - | - |
| 1777562708 | 15.56° C | 53% | 1024.4 hPa | - | - | - | - |
| 1777561508 | 16.11° C | 54% | 1024.5 hPa | - | - | - | - |
| 1777560307 | 16.11° C | 54% | 1024.4 hPa | - | - | - | - |
| 1777559107 | 15.56° C | 53% | 1024.4 hPa | - | - | - | - |
| 1777557907 | 16.11° C | 53% | 1024.6 hPa | - | - | - | - |
| 1777556707 | 16.11° C | 52% | 1024.7 hPa | - | - | - | - |
| 1777555506 | 17.22° C | 50% | 1024.9 hPa | - | - | - | - |
| 1777554306 | 16.11° C | 56% | 1025.3 hPa | - | - | - | - |
| 1777553106 | 15° C | 55% | 1025.5 hPa | - | - | - | - |
| 1777551905 | 14.44° C | 56% | 1025.6 hPa | - | - | - | - |
| 1777550705 | 13.89° C | 58% | 1025.7 hPa | - | - | - | - |
| 1777549505 | 13.89° C | 57% | 1025.6 hPa | - | - | - | - |
| 1777548304 | 14.44° C | 57% | 1025.6 hPa | - | - | - | - |
| 1777547104 | 15° C | 56% | 1025.6 hPa | - | - | - | - |
* Rain since midnight (hover to see other rain measurements)
** Current wind speed in m/s (hover to see current wind gust speed)